Weather History for KRDG - June, 2013

Change the Weather History Date:

Sunday, June 9, 2013

  Actual Average Record
Temperature  
Mean Temperature 69 °F 69 °F  
Max Temperature 83 °F 80 °F 98 °F (1933)
Min Temperature 55 °F 58 °F 41 °F (1977)
Degree Days  
Heating Degree Days 0 1  
Month to date heating degree days 2 15  
Since 1 June heating degree days 2 15  
Since 1 July heating degree days 4990 5383  
Cooling Degree Days 4 5  
Month to date cooling degree days 46 38  
Year to date cooling degree days 145 98  
Since 1 June cooling degree days 46 38  
Growing Degree Days 20 (Base 50)    
Moisture  
Dew Point 59 °F    
Average Humidity 68    
Maximum Humidity 93    
Minimum Humidity 43    
Precipitation  
Precipitation 0.00 in 0.15 in 1.23 in (1990)
Month to date precipitation 2.26 1.23  
Year to date precipitation 15.30 18.25  
Sea Level Pressure  
Sea Level Pressure 30.15 in    
Wind  
Wind Speed 2 mph (SSW)    
Max Wind Speed 12 mph    
Max Gust Speed 15 mph    
Visibility 10 miles    
Events      
T = Trace of Precipitation, MM = Missing Value Source: NWS Daily Summary

Daily Weather History Graph

Daily Weather History Graph

Search for Another Location

Airport or City:

Trip Planner

Search our weather history database for the weather conditions in past years. The results will help you decide how hot, cold, wet, or windy it might be!

Date:

Astronomy

Jun. 09, 2013 Rise Set
Actual Time 5:33 AM EDT 8:32 PM EDT
Civil Twilight 5:00 AM EDT 9:05 PM EDT
Nautical Twilight 4:18 AM EDT 9:47 PM EDT
Astronomical Twilight 3:30 AM EDT 10:36 PM EDT
Moon 6:28 AM EDT (6/9) 9:17 PM EDT (6/9)
Length of Visible Light 16h 05m
Length of Day
14h 59m
New Moon, 1% of the Moon is Illuminated
Jun 9
New Moon
Jun 16
First Quarter
Jun 23
Full
Jun 30
Last Quarter
Jul 8
New

Hourly Weather History & Observations

Time (EDT) Temp. Heat Index Dew Point Humidity Pressure Visibility Wind Dir Wind Speed Gust Speed Precip Events Conditions
12:54 AM 59.0 °F - 57.9 °F 96% 30.12 in 10.0 mi Calm Calm - N/A   Clear
1:54 AM 60.1 °F - 57.0 °F 90% 30.12 in 10.0 mi Calm Calm - N/A   Clear
2:54 AM 59.0 °F - 55.9 °F 90% 30.12 in 10.0 mi Calm Calm - N/A   Clear
3:54 AM 57.9 °F - 55.0 °F 90% 30.12 in 10.0 mi Calm Calm - N/A   Clear
4:54 AM 57.0 °F - 54.0 °F 89% 30.14 in 10.0 mi Calm Calm - N/A   Clear
5:54 AM 57.0 °F - 55.0 °F 93% 30.17 in 9.0 mi Calm Calm - N/A   Partly Cloudy
6:54 AM 59.0 °F - 55.9 °F 90% 30.17 in 5.0 mi Calm Calm - N/A   Clear
7:54 AM 64.0 °F - 57.9 °F 80% 30.18 in 10.0 mi Calm Calm - N/A   Clear
8:54 AM 68.0 °F - 57.9 °F 70% 30.19 in 10.0 mi Calm Calm - N/A   Scattered Clouds
9:54 AM 72.0 °F - 59.0 °F 64% 30.21 in 10.0 mi SW 3.5 mph - N/A   Overcast
10:54 AM 73.9 °F - 57.9 °F 57% 30.20 in 10.0 mi Calm Calm - N/A   Clear
11:54 AM 75.9 °F - 57.9 °F 54% 30.19 in 10.0 mi Variable 4.6 mph - N/A   Clear
12:54 PM 79.0 °F - 59.0 °F 50% 30.18 in 10.0 mi West 6.9 mph - N/A   Clear
1:54 PM 81.0 °F 81.6 °F 60.1 °F 49% 30.17 in 10.0 mi SW 6.9 mph - N/A   Clear
2:54 PM 82.0 °F 82.0 °F 57.9 °F 44% 30.15 in 10.0 mi Variable 3.5 mph - N/A   Partly Cloudy
3:54 PM 82.0 °F 81.7 °F 57.0 °F 42% 30.13 in 10.0 mi Calm Calm - N/A   Clear
4:54 PM 82.0 °F 82.1 °F 59.0 °F 45% 30.12 in 10.0 mi South 5.8 mph - N/A   Clear
5:54 PM 81.0 °F 81.6 °F 60.1 °F 49% 30.13 in 10.0 mi South 5.8 mph - N/A   Scattered Clouds
6:54 PM 79.0 °F - 60.1 °F 52% 30.13 in 10.0 mi South 5.8 mph - N/A   Clear
7:54 PM 77.0 °F - 60.1 °F 56% 30.14 in 10.0 mi South 3.5 mph - N/A   Clear
8:54 PM 75.9 °F - 61.0 °F 60% 30.14 in 10.0 mi South 3.5 mph - N/A   Mostly Cloudy
9:54 PM 75.0 °F - 62.1 °F 64% 30.16 in 10.0 mi Calm Calm - N/A   Mostly Cloudy
10:54 PM 73.9 °F - 63.0 °F 68% 30.15 in 10.0 mi Calm Calm - N/A   Overcast
11:54 PM 73.0 °F - 64.0 °F 73% 30.14 in 10.0 mi South 4.6 mph - N/A   Mostly Cloudy